Date String (YYYY-MM-DD hh:mm:ss) UTC,Instrument flags,absolute air pressure of the measurement (hPa),sample flow rate (lpm),inlet stack bypass flow (lpm),air temperature of the measurement (°C),ambient temperature measured by the external sensor (°C),aerosol sample conditioner tube jacket temperature (°C),OPC LED temperature (°C),internal box temperature (°C),relative humidity of the measurement (%),span deviation,mass concentration of particles derived from Lorenz-Mie calculation of OPC scattering (μg/m³),mass concentration of particles derived from Lorenz-Mie calculation of OPC scattering (μg/m³),mass concentration of particles derived from Lorenz-Mie calculation of OPC scattering (μg/m³)
DateTimeUTC,F1_M11,P_M11,Q1_M11,Q2_M11,T1_M11,T2_M11,T3_M11,T4_M11,T5_M11,U1_M11,ZSPAN_M11,X2_M11,X0_M11,X1_M11
2024-03-22 22:00:00,SystemResetWarning,0827.2,5.00,000.00,024.0,023.3,000.0,032.3,025.7,13.9,0000.0,0004.22,0012.26,0002.64
2024-03-22 22:01:00,SystemResetWarning,0827.2,5.01,000.00,024.0,023.4,000.0,032.3,025.7,13.8,0000.0,0004.20,0012.13,0002.64
2024-03-22 22:02:00,SystemResetWarning,0827.2,5.01,000.00,024.0,023.4,000.0,032.3,025.8,13.8,0000.0,0004.22,0013.57,0002.66
2024-03-22 22:03:00,SystemResetWarning,0827.2,5.00,000.00,024.0,023.4,000.0,032.4,025.8,13.5,0000.0,0004.23,0013.88,0002.67
2024-03-22 22:04:00,SystemResetWarning,0827.2,4.99,000.00,024.0,023.4,000.0,032.4,025.9,13.3,0000.0,0004.28,0014.28,0002.68
2024-03-22 22:05:00,SystemResetWarning,0827.2,4.99,000.00,024.0,023.4,000.0,032.4,025.9,13.3,0000.0,0004.28,0014.67,0002.68
2024-03-22 22:06:00,SystemResetWarning,0827.2,5.01,000.00,024.0,023.4,000.0,032.4,025.9,13.3,0000.0,0004.25,0014.74,0002.67
2024-03-22 22:07:00,SystemResetWarning,0827.2,5.02,000.00,024.1,023.4,000.0,032.4,025.9,12.9,0000.0,0004.15,0014.47,0002.65
2024-03-22 22:08:00,SystemResetWarning,0827.2,5.00,000.00,024.1,023.4,000.0,032.4,025.9,12.8,0000.0,0004.11,0013.18,0002.65
2024-03-22 22:09:00,SystemResetWarning,0827.2,5.00,000.00,024.1,023.4,000.0,032.4,025.9,12.8,0000.0,0004.07,0012.20,0002.64
2024-03-22 22:10:00,SystemResetWarning,0827.2,5.00,000.00,024.1,023.5,000.0,032.4,025.9,13.0,0000.0,0004.02,0011.89,0002.63
2024-03-22 22:11:00,SystemResetWarning,0827.2,5.00,000.00,024.1,023.5,000.0,032.4,025.9,13.1,0000.0,0004.00,0012.26,0002.61
2024-03-22 22:12:00,SystemResetWarning,0827.2,5.00,000.00,024.1,023.5,000.0,032.5,026.0,13.1,0000.0,0004.02,0012.92,0002.58
2024-03-22 22:13:00,SystemResetWarning,0827.2,5.00,000.00,024.1,023.5,000.0,032.5,026.0,13.4,0000.0,0003.99,0011.81,0002.55
2024-03-22 22:14:00,SystemResetWarning,0827.2,5.00,000.00,024.1,023.5,000.0,032.5,026.0,13.3,0000.0,0003.98,0011.22,0002.53
2024-03-22 22:15:00,SystemResetWarning,0827.2,5.00,000.00,024.2,023.5,000.0,032.5,026.0,13.0,0000.0,0003.91,0010.80,0002.50
2024-03-22 22:16:00,SystemResetWarning,0827.2,5.01,000.00,024.2,023.6,000.0,032.5,026.0,12.7,0000.0,0003.87,0010.30,0002.46
2024-03-22 22:17:00,SystemResetWarning,0827.2,5.00,000.00,024.2,023.6,000.0,032.5,026.0,12.6,0000.0,0003.80,0010.55,0002.42
2024-03-22 22:18:00,SystemResetWarning,0827.2,5.01,000.00,024.2,023.6,000.0,032.5,026.0,12.7,0000.0,0003.83,0011.31,0002.41
2024-03-22 22:19:00,SystemResetWarning,0827.2,5.01,000.00,024.2,023.6,000.0,032.5,026.0,13.0,0000.0,0003.87,0011.96,0002.38
2024-03-22 22:20:00,SystemResetWarning,0827.2,5.00,000.00,024.2,023.6,000.0,032.6,026.0,12.9,0000.0,0003.87,0012.68,0002.37
2024-03-22 22:21:00,SystemResetWarning,0827.2,5.00,000.00,024.2,023.6,000.0,032.6,026.1,13.1,0000.0,0003.92,0013.75,0002.36
2024-03-22 22:22:00,SystemResetWarning,0827.2,5.00,000.00,024.2,023.7,000.0,032.6,026.1,13.4,0000.0,0003.94,0014.13,0002.35
2024-03-22 22:23:00,SystemResetWarning,0827.1,5.00,000.00,024.3,023.7,000.0,032.6,026.1,13.0,0000.0,0003.88,0013.30,0002.36
2024-03-22 22:24:00,SystemResetWarning,0827.1,5.00,000.00,024.3,023.7,000.0,032.6,026.1,13.3,0000.0,0003.96,0013.39,0002.38
2024-03-22 22:25:00,SystemResetWarning,0827.1,5.00,000.00,024.3,023.7,000.0,032.6,026.1,13.2,0000.0,0004.01,0013.56,0002.39
2024-03-22 22:26:00,SystemResetWarning,0827.2,5.00,000.00,024.3,023.7,000.0,032.6,026.1,13.4,0000.0,0004.05,0014.02,0002.41
2024-03-22 22:27:00,SystemResetWarning,0827.1,5.00,000.00,024.3,023.7,000.0,032.7,026.2,13.5,0000.0,0004.07,0014.26,0002.44
2024-03-22 22:28:00,SystemResetWarning,0827.2,5.00,000.00,024.3,023.7,000.0,032.7,026.2,13.3,0000.0,0004.14,0014.62,0002.47
2024-03-22 22:29:00,SystemResetWarning,0827.1,5.00,000.00,024.3,023.7,000.0,032.7,026.2,13.2,0000.0,0004.18,0014.91,0002.47
2024-03-22 22:30:00,SystemResetWarning,0827.1,4.99,000.00,024.3,023.7,000.0,032.7,026.2,13.4,0000.0,0004.17,0015.55,0002.49
2024-03-22 22:31:00,SystemResetWarning,0827.1,4.99,000.00,024.4,023.8,000.0,032.7,026.2,13.4,0000.0,0004.18,0015.59,0002.51
2024-03-22 22:32:00,SystemResetWarning,0827.1,5.00,000.00,024.4,023.8,000.0,032.7,026.2,13.6,0000.0,0004.15,0015.54,0002.52
2024-03-22 22:33:00,SystemResetWarning,0827.1,5.01,000.00,024.4,023.8,000.0,032.7,026.2,13.5,0000.0,0004.14,0015.23,0002.53
2024-03-22 22:34:00,SystemResetWarning,0827.1,5.01,000.00,024.4,023.8,000.0,032.7,026.3,13.2,0000.0,0004.16,0015.51,0002.56
2024-03-22 22:35:00,SystemResetWarning,0827.2,5.00,000.00,024.4,023.8,000.0,032.8,026.3,13.3,0000.0,0004.19,0015.68,0002.56
2024-03-22 22:36:00,SystemResetWarning,0827.1,4.99,000.00,024.4,023.9,000.0,032.8,026.3,12.9,0000.0,0004.11,0015.57,0002.56
2024-03-22 22:37:00,SystemResetWarning,0827.1,5.00,000.00,024.5,023.9,000.0,032.8,026.3,13.4,0000.0,0004.08,0015.24,0002.57
2024-03-22 22:38:00,SystemResetWarning,0827.2,5.00,000.00,024.5,023.9,000.0,032.8,026.3,13.9,0000.0,0004.05,0014.98,0002.56
2024-03-22 22:39:00,SystemResetWarning,0827.1,5.01,000.00,024.5,023.9,000.0,032.8,026.3,13.6,0000.0,0004.05,0014.66,0002.53
2024-03-22 22:40:00,SystemResetWarning,0827.1,5.00,000.00,024.5,023.9,000.0,032.8,026.4,13.8,0000.0,0004.03,0014.32,0002.52
2024-03-22 22:41:00,SystemResetWarning,0827.1,4.99,000.00,024.5,023.9,000.0,032.8,026.4,12.4,0000.0,0004.03,0013.74,0002.49
2024-03-22 22:42:00,SystemResetWarning,0827.1,4.99,000.00,024.5,023.9,000.0,032.9,026.3,12.6,0000.0,0004.05,0013.18,0002.47
2024-03-22 22:43:00,SystemResetWarning,0827.1,5.01,000.00,024.5,023.9,000.0,032.9,026.4,13.2,0000.0,0004.05,0013.17,0002.46
2024-03-22 22:44:00,SystemResetWarning,0827.1,5.02,000.00,024.6,024.0,000.0,032.9,026.4,13.0,0000.0,0004.03,0013.60,0002.46
2024-03-22 22:45:00,SystemResetWarning,0827.1,4.99,000.00,024.6,024.0,000.0,032.9,026.4,13.0,0000.0,0004.06,0014.47,0002.45
2024-03-22 22:46:00,SystemResetWarning,0827.1,4.99,000.00,024.6,024.0,000.0,032.9,026.5,12.7,0000.0,0004.03,0015.08,0002.45
2024-03-22 22:47:00,SystemResetWarning,0827.0,5.02,000.00,024.6,024.0,000.0,032.9,026.5,12.7,0000.0,0004.06,0016.25,0002.46
2024-03-22 22:48:00,SystemResetWarning,0827.1,5.00,000.00,024.6,024.1,000.0,032.9,026.5,12.3,0000.0,0004.10,0017.05,0002.44
2024-03-22 22:49:00,SystemResetWarning,0827.1,4.99,000.00,024.7,024.1,000.0,033.0,026.5,12.0,0000.0,0004.09,0017.43,0002.44
2024-03-22 22:50:00,SystemResetWarning,0827.0,4.99,000.00,024.7,024.1,000.0,033.0,026.5,12.1,0000.0,0004.09,0018.67,0002.45
2024-03-22 22:51:00,SystemResetWarning,0827.0,5.01,000.00,024.7,024.1,000.0,033.0,026.6,12.0,0000.0,0004.10,0018.87,0002.47
2024-03-22 22:52:00,SystemResetWarning,0827.0,5.00,000.00,024.7,024.1,000.0,033.0,026.6,12.0,0000.0,0004.10,0018.57,0002.49
2024-03-22 22:53:00,SystemResetWarning,0827.0,5.00,000.00,024.7,024.1,000.0,033.0,026.6,12.0,0000.0,0004.08,0018.68,0002.50
2024-03-22 22:54:00,SystemResetWarning,0827.0,5.01,000.00,024.7,024.2,000.0,033.0,026.6,12.4,0000.0,0004.14,0018.68,0002.53
2024-03-22 22:55:00,SystemResetWarning,0827.0,4.99,000.00,024.8,024.2,000.0,033.1,026.6,12.4,0000.0,0004.17,0018.59,0002.53
2024-03-22 22:56:00,SystemResetWarning,0827.0,5.00,000.00,024.8,024.2,000.0,033.1,026.6,11.9,0000.0,0004.11,0017.28,0002.51
2024-03-22 22:57:00,SystemResetWarning,0827.0,5.00,000.00,024.8,024.2,000.0,033.1,026.6,11.7,0000.0,0004.08,0016.09,0002.47
2024-03-22 22:58:00,SystemResetWarning,0827.0,4.99,000.00,024.8,024.2,000.0,033.1,026.7,11.6,0000.0,0004.05,0014.77,0002.44
2024-03-22 22:59:00,SystemResetWarning,0827.0,5.00,000.00,024.8,024.3,000.0,033.1,026.7,11.7,0000.0,0004.04,0014.10,0002.44
